Location: Hurecourt
(47.9030°N, 6.0653°E)
Time: 10:58:31
(UTC+00:00)

BREEZE-M DEB (TANK) - Pass Details

Date: 14 July 2020
Orbit: 274 x 20503 km, 49.2° (Epoch: 05 August)

Event Time Altitude Azimuth Distance (km) Brightness Sun altitude
Exits shadow 01:56:28 - 275° (W) 1,547 4.9 -14.2°
Reaches altitude 10° 01:56:35 10° 274° (W) 1,498 4.8 -14.2°
Maximum altitude 01:59:18 43° 200° (SSW) 951 3.5 -13.9°
Drops below altitude 10° 02:07:20 10° 131° (SE) 4,421 7.3 -13.2°
Sets 02:14:42 0° 128° (SE) 7,600 8.6 -12.5°
